{"data":{"norad_id":57506,"epoch":"2026-05-25T03:35:19.029984Z","epoch_age_seconds":62293,"freshness":"FRESH","line1":"1 57506U 23113M   26145.14952581 -.00000888  00000+0 -22762-4 0  9994","line2":"2 57506  43.0049 304.6879 0001425 270.6552  89.4136 15.27567123155204","mean_motion":15.27567123,"eccentricity":0.0001425,"inclination_deg":43.0049,"raan_deg":304.6879,"arg_perigee_deg":270.6552,"mean_anomaly_deg":89.4136,"bstar":-2.2762e-5,"rev_number":15520,"period_min":94.267543358224,"perigee_km":482.1099301677,"apogee_km":484.06537919429,"semimajor_km":6861.224654681,"source":"CELESTRAK","updated_at":"2026-05-25T13:38:18.328977Z"}}